Location: Unspecified
(0.0000°N, 0.0000°E)
Time: 18:26:03
(UTC+00:00)

Vanguard 1 - Pass Details

Date: 19 April 2026
Orbit: 654 x 3817 km, 34.2° (Epoch: 18 May)

Event Time Altitude Azimuth Distance (km) Brightness Sun altitude
Rises 04:06:27 0° 318° (NW) 7,210 14.2 -27.6°
Reaches altitude 10° 04:13:33 10° 331° (NNW) 5,627 13.7 -25.9°
Maximum altitude 04:24:37 23° 17° (NNE) 3,548 13.1 -23.2°
Drops below altitude 10° 04:31:58 10° 66° (ENE) 3,630 14.1 -21.4°
Sets 04:35:13 0° 81° (E) 4,213 14.9 -20.6°
